User: anonymous   Login
Location: Boiro
(42.6475°N, 8.8834°W)
Time: 07:33:25
(UTC+01:00)
Language:

HuskySat-1 - Orbit

View from above orbital plane
View from above orbital plane
View from above satellite
View from above satellite

Ground track
Ground track

The orbit data is extracted from the following two-line orbital elements,

1 45117U 19071G   22026.54627227  .00015072  00000-0  38035-3 0  9990
2 45117  51.6406  30.7537 0009609  26.1339 334.0128 15.40007083111513
Epoch (UTC): 26 January 2022 13:06:37
Eccentricity: 0.0009609
inclination: 51.6406°
perigee height: 439 km
apogee height: 452 km
right ascension of ascending node: 30.7537°
argument of perigee: 26.1339°
revolutions per day: 15.40007083
mean anomaly at epoch: 334.0128°
orbit number at epoch: 11151

The dashed part of the orbit path shows where the satellite is in the earth's shadow,  

DLR